Time,TemperatureF,DewpointF,PressureIn,WindDirection,WindDirectionDegrees,WindSpeedMPH,WindSpeedGustMPH,Humidity,HourlyPrecipIn,Conditions,Clouds,dailyrainin,SoftwareType,DateUTC
2013-07-30 00:00:00,67.9,56.0,30.05,NW,311,1.0,6.0,67,0.00,,,0.00,weatherlink.com 1.10,2013-07-30 04:00:00,
2013-07-30 00:15:00,68.2,57.0,30.05,NNE,27,0.0,7.0,67,0.00,,,0.00,weatherlink.com 1.10,2013-07-30 04:15:00,
2013-07-30 00:30:00,66.8,56.0,30.05,West,281,1.0,2.0,69,0.00,,,0.00,weatherlink.com 1.10,2013-07-30 04:30:00,
2013-07-30 00:45:00,67.1,57.0,30.06,WNW,297,0.0,4.0,69,0.00,,,0.00,weatherlink.com 1.10,2013-07-30 04:45:00,
2013-07-30 01:01:00,66.0,57.0,30.06,NNE,16,1.0,3.0,73,0.00,,,0.00,weatherlink.com 1.10,2013-07-30 05:01:00,
2013-07-30 01:16:00,65.3,57.0,30.06,WNW,282,1.0,2.0,74,0.00,,,0.00,weatherlink.com 1.10,2013-07-30 05:16:00,
2013-07-30 01:31:00,65.1,57.0,30.06,NW,316,1.0,3.0,75,0.00,,,0.00,weatherlink.com 1.10,2013-07-30 05:31:00,
2013-07-30 01:46:00,64.5,57.0,30.06,West,269,1.0,2.0,76,0.00,,,0.00,weatherlink.com 1.10,2013-07-30 05:46:00,
2013-07-30 02:01:00,63.7,57.0,30.07,NNE,22,0.0,1.0,79,0.00,,,0.00,weatherlink.com 1.10,2013-07-30 06:01:00,
2013-07-30 02:16:00,62.7,57.0,30.07,NNE,33,0.0,1.0,81,0.00,,,0.00,weatherlink.com 1.10,2013-07-30 06:16:00,
2013-07-30 02:31:00,62.2,56.0,30.07,NW,319,0.0,0.0,81,0.00,,,0.00,weatherlink.com 1.10,2013-07-30 06:31:00,
2013-07-30 02:46:00,60.7,56.0,30.07,NW,319,0.0,0.0,85,0.00,,,0.00,weatherlink.com 1.10,2013-07-30 06:46:00,
2013-07-30 03:16:00,59.3,56.0,30.06,NNW,333,0.0,1.0,88,0.00,,,0.00,weatherlink.com 1.10,2013-07-30 07:16:00,
2013-07-30 03:31:00,59.1,56.0,30.06,NE,38,1.0,2.0,89,0.00,,,0.00,weatherlink.com 1.10,2013-07-30 07:31:00,
2013-07-30 04:01:00,58.4,56.0,30.06,NE,38,2.0,2.0,90,0.00,,,0.00,weatherlink.com 1.10,2013-07-30 08:01:00,
2013-07-30 04:16:00,58.2,55.0,30.06,North,358,1.0,3.0,90,0.00,,,0.00,weatherlink.com 1.10,2013-07-30 08:16:00,
2013-07-30 04:31:00,59.2,56.0,30.06,NNE,27,3.0,3.0,88,0.00,,,0.00,weatherlink.com 1.10,2013-07-30 08:31:00,
2013-07-30 04:46:00,60.3,56.0,30.07,West,281,0.0,2.0,85,0.00,,,0.00,weatherlink.com 1.10,2013-07-30 08:46:00,
2013-07-30 05:31:00,58.2,55.0,30.08,NE,42,0.0,2.0,90,0.00,,,0.00,weatherlink.com 1.10,2013-07-30 09:31:00,
2013-07-30 05:46:00,57.9,55.0,30.08,SE,139,0.0,1.0,91,0.00,,,0.00,weatherlink.com 1.10,2013-07-30 09:46:00,
2013-07-30 06:01:00,57.6,55.0,30.08,NNW,345,0.0,1.0,92,0.00,,,0.00,weatherlink.com 1.10,2013-07-30 10:01:00,
2013-07-30 06:31:00,59.0,57.0,30.08,NE,49,1.0,1.0,92,0.00,,,0.00,weatherlink.com 1.10,2013-07-30 10:31:00,
2013-07-30 06:46:00,61.7,58.0,30.09,NE,47,0.0,1.0,88,0.00,,,0.00,weatherlink.com 1.10,2013-07-30 10:46:00,
2013-07-30 07:01:00,62.7,58.0,30.09,ENE,78,0.0,0.0,85,0.00,,,0.00,weatherlink.com 1.10,2013-07-30 11:01:00,
2013-07-30 07:16:00,64.9,58.0,30.09,ENE,78,0.0,0.0,79,0.00,,,0.00,weatherlink.com 1.10,2013-07-30 11:16:00,
2013-07-30 07:46:00,67.2,59.0,30.10,ESE,122,1.0,3.0,76,0.00,,,0.00,weatherlink.com 1.10,2013-07-30 11:46:00,
2013-07-30 08:01:00,67.8,59.0,30.10,SE,131,1.0,4.0,74,0.00,,,0.00,weatherlink.com 1.10,2013-07-30 12:01:00,
2013-07-30 08:17:00,67.9,59.0,30.11,SE,139,3.0,5.0,73,0.00,,,0.00,weatherlink.com 1.10,2013-07-30 12:17:00,
2013-07-30 08:32:00,68.3,59.0,30.11,SE,129,1.0,5.0,73,0.00,,,0.00,weatherlink.com 1.10,2013-07-30 12:32:00,
2013-07-30 08:47:00,69.0,59.0,30.11,ESE,122,2.0,4.0,71,0.00,,,0.00,weatherlink.com 1.10,2013-07-30 12:47:00,
2013-07-30 09:02:00,70.5,59.0,30.11,East,88,1.0,5.0,68,0.00,,,0.00,weatherlink.com 1.10,2013-07-30 13:02:00,
2013-07-30 09:17:00,71.8,59.0,30.11,SSE,158,3.0,5.0,64,0.00,,,0.00,weatherlink.com 1.10,2013-07-30 13:17:00,
2013-07-30 09:32:00,71.0,58.0,30.11,SE,137,2.0,5.0,64,0.00,,,0.00,weatherlink.com 1.10,2013-07-30 13:32:00,
2013-07-30 10:02:00,72.7,57.0,30.11,SW,215,0.0,7.0,59,0.00,,,0.00,weatherlink.com 1.10,2013-07-30 14:02:00,
2013-07-30 10:17:00,73.9,58.0,30.11,ESE,117,2.0,3.0,57,0.00,,,0.00,weatherlink.com 1.10,2013-07-30 14:17:00,
2013-07-30 10:32:00,74.7,57.0,30.10,WSW,238,3.0,6.0,54,0.00,,,0.00,weatherlink.com 1.10,2013-07-30 14:32:00,
2013-07-30 10:47:00,75.4,57.0,30.11,WSW,256,2.0,6.0,53,0.00,,,0.00,weatherlink.com 1.10,2013-07-30 14:47:00,
2013-07-30 11:02:00,74.0,58.0,30.10,SE,131,5.0,7.0,58,0.00,,,0.00,weatherlink.com 1.10,2013-07-30 15:02:00,
2013-07-30 11:17:00,73.5,57.0,30.10,ESE,102,2.0,6.0,57,0.00,,,0.00,weatherlink.com 1.10,2013-07-30 15:17:00,
2013-07-30 11:32:00,73.1,57.0,30.10,ESE,111,1.0,2.0,58,0.00,,,0.00,weatherlink.com 1.10,2013-07-30 15:32:00,
2013-07-30 12:02:00,72.6,58.0,30.10,East,101,4.0,4.0,60,0.00,,,0.00,weatherlink.com 1.10,2013-07-30 16:02:00,
2013-07-30 12:17:00,72.6,57.0,30.09,ENE,72,3.0,5.0,59,0.00,,,0.00,weatherlink.com 1.10,2013-07-30 16:17:00,
2013-07-30 12:32:00,72.4,59.0,30.09,ESE,113,1.0,4.0,62,0.00,,,0.00,weatherlink.com 1.10,2013-07-30 16:32:00,
2013-07-30 12:47:00,73.4,60.0,30.09,SE,135,2.0,6.0,64,0.00,,,0.00,weatherlink.com 1.10,2013-07-30 16:47:00,
2013-07-30 13:02:00,74.4,59.0,30.08,SE,142,3.0,5.0,58,0.00,,,0.00,weatherlink.com 1.10,2013-07-30 17:02:00,
2013-07-30 13:17:00,74.0,57.0,30.08,SE,132,2.0,6.0,55,0.00,,,0.00,weatherlink.com 1.10,2013-07-30 17:17:00,
2013-07-30 13:32:00,75.1,59.0,30.08,ESE,122,3.0,5.0,58,0.00,,,0.00,weatherlink.com 1.10,2013-07-30 17:32:00,
2013-07-30 13:47:00,74.8,58.0,30.07,ESE,110,1.0,5.0,57,0.00,,,0.00,weatherlink.com 1.10,2013-07-30 17:47:00,
2013-07-30 14:02:00,74.5,58.0,30.07,SE,145,1.0,4.0,56,0.00,,,0.00,weatherlink.com 1.10,2013-07-30 18:02:00,
2013-07-30 14:17:00,73.8,59.0,30.07,SSE,158,2.0,2.0,61,0.00,,,0.00,weatherlink.com 1.10,2013-07-30 18:17:00,
2013-07-30 14:32:00,74.7,60.0,30.07,SE,143,3.0,3.0,61,0.00,,,0.00,weatherlink.com 1.10,2013-07-30 18:32:00,
2013-07-30 14:47:00,76.6,59.0,30.06,SE,145,4.0,6.0,55,0.00,,,0.00,weatherlink.com 1.10,2013-07-30 18:47:00,
2013-07-30 15:02:00,78.2,57.0,30.06,SE,146,2.0,3.0,48,0.00,,,0.00,weatherlink.com 1.10,2013-07-30 19:02:00,
2013-07-30 15:17:00,79.4,57.0,30.05,WNW,291,2.0,7.0,46,0.00,,,0.00,weatherlink.com 1.10,2013-07-30 19:17:00,
2013-07-30 15:32:00,78.9,60.0,30.05,SSE,152,1.0,3.0,52,0.00,,,0.00,weatherlink.com 1.10,2013-07-30 19:32:00,
2013-07-30 15:47:00,79.8,57.0,30.05,WSW,257,2.0,2.0,45,0.00,,,0.00,weatherlink.com 1.10,2013-07-30 19:47:00,
2013-07-30 16:02:00,79.5,57.0,30.04,South,191,0.0,5.0,46,0.00,,,0.00,weatherlink.com 1.10,2013-07-30 20:02:00,
2013-07-30 16:17:00,78.4,60.0,30.04,NE,49,0.0,3.0,53,0.00,,,0.00,weatherlink.com 1.10,2013-07-30 20:17:00,
2013-07-30 16:32:00,79.4,59.0,30.03,WNW,295,1.0,4.0,49,0.00,,,0.00,weatherlink.com 1.10,2013-07-30 20:32:00,
2013-07-30 16:47:00,81.4,55.0,30.03,West,278,0.0,4.0,40,0.00,,,0.00,weatherlink.com 1.10,2013-07-30 20:47:00,
2013-07-30 17:02:00,82.1,58.0,30.03,NW,306,1.0,3.0,44,0.00,,,0.00,weatherlink.com 1.10,2013-07-30 21:02:00,
2013-07-30 17:17:00,78.8,60.0,30.03,ENE,65,0.0,3.0,52,0.00,,,0.00,weatherlink.com 1.10,2013-07-30 21:17:00,
2013-07-30 17:32:00,77.9,59.0,30.03,NNE,33,0.0,5.0,52,0.00,,,0.00,weatherlink.com 1.10,2013-07-30 21:32:00,
2013-07-30 17:47:00,77.6,57.0,30.03,SE,138,3.0,5.0,49,0.00,,,0.00,weatherlink.com 1.10,2013-07-30 21:47:00,
2013-07-30 18:02:00,77.6,58.0,30.03,SE,135,2.0,4.0,51,0.00,,,0.00,weatherlink.com 1.10,2013-07-30 22:02:00,
2013-07-30 18:18:00,76.8,59.0,30.04,ENE,60,0.0,1.0,54,0.00,,,0.00,weatherlink.com 1.10,2013-07-30 22:18:00,
2013-07-30 18:33:00,75.9,59.0,30.05,NE,42,0.0,2.0,57,0.00,,,0.00,weatherlink.com 1.10,2013-07-30 22:33:00,
2013-07-30 18:47:00,74.5,62.0,30.05,East,79,0.0,1.0,66,0.00,,,0.00,weatherlink.com 1.10,2013-07-30 22:47:00,
2013-07-30 19:03:00,72.7,62.0,30.05,NNE,28,0.0,1.0,69,0.00,,,0.00,weatherlink.com 1.10,2013-07-30 23:03:00,
2013-07-30 19:18:00,71.5,62.0,30.05,NNE,28,0.0,0.0,73,0.00,,,0.00,weatherlink.com 1.10,2013-07-30 23:18:00,
2013-07-30 19:33:00,70.0,61.0,30.05,NE,41,0.0,2.0,73,0.00,,,0.00,weatherlink.com 1.10,2013-07-30 23:33:00,
2013-07-30 19:48:00,68.4,61.0,30.05,NE,34,0.0,0.0,78,0.00,,,0.00,weatherlink.com 1.10,2013-07-30 23:48:00,
2013-07-30 20:03:00,67.9,62.0,30.05,NE,34,0.0,0.0,82,0.00,,,0.00,weatherlink.com 1.10,2013-07-31 00:03:00,
2013-07-30 20:18:00,67.5,63.0,30.05,NNE,27,0.0,0.0,84,0.00,,,0.00,weatherlink.com 1.10,2013-07-31 00:18:00,
2013-07-30 20:33:00,66.8,62.0,30.06,NNE,28,0.0,0.0,84,0.00,,,0.00,weatherlink.com 1.10,2013-07-31 00:33:00,
2013-07-30 20:48:00,66.6,61.0,30.06,WNW,294,0.0,1.0,82,0.00,,,0.00,weatherlink.com 1.10,2013-07-31 00:48:00,
2013-07-30 21:03:00,64.8,61.0,30.07,NNE,27,0.0,1.0,87,0.00,,,0.00,weatherlink.com 1.10,2013-07-31 01:03:00,
2013-07-30 21:18:00,64.1,61.0,30.07,NNE,27,0.0,0.0,88,0.00,,,0.00,weatherlink.com 1.10,2013-07-31 01:18:00,
2013-07-30 21:33:00,63.7,60.0,30.07,WNW,302,1.0,2.0,87,0.00,,,0.00,weatherlink.com 1.10,2013-07-31 01:33:00,
2013-07-30 21:48:00,63.0,59.0,30.08,NNE,18,0.0,1.0,87,0.00,,,0.00,weatherlink.com 1.10,2013-07-31 01:48:00,
2013-07-30 22:03:00,62.4,60.0,30.09,North,1,1.0,1.0,90,0.00,,,0.00,weatherlink.com 1.10,2013-07-31 02:03:00,
2013-07-30 22:18:00,62.2,59.0,30.09,NNE,21,0.0,0.0,90,0.00,,,0.00,weatherlink.com 1.10,2013-07-31 02:18:00,
2013-07-30 22:33:00,61.4,59.0,30.09,NNE,25,0.0,0.0,91,0.00,,,0.00,weatherlink.com 1.10,2013-07-31 02:33:00,
2013-07-30 22:48:00,60.9,59.0,30.09,NNE,25,0.0,0.0,92,0.00,,,0.00,weatherlink.com 1.10,2013-07-31 02:48:00,
2013-07-30 23:03:00,60.7,58.0,30.09,NNE,25,0.0,0.0,92,0.00,,,0.00,weatherlink.com 1.10,2013-07-31 03:03:00,
2013-07-30 23:18:00,60.6,58.0,30.09,NNE,25,0.0,0.0,92,0.00,,,0.00,weatherlink.com 1.10,2013-07-31 03:18:00,
2013-07-30 23:33:00,60.3,58.0,30.09,NNE,25,0.0,0.0,92,0.00,,,0.00,weatherlink.com 1.10,2013-07-31 03:33:00,
2013-07-30 23:48:00,59.8,58.0,30.09,North,1,0.0,0.0,93,0.00,,,0.00,weatherlink.com 1.10,2013-07-31 03:48:00,